Simultaneous Nadir Overpasses (SNOs) Predictions

Prediction of SNOs between FY3D and AQUA Satellite Orbit:

Table of predicted SNOs for the next 14.0 days since TLE Epoch: 12/21/2019
Index Date (FY3D) Time (FY3D) Lat,Lon (FY3D) SZA (FY3D ) Date (AQUA) Time (AQUA) Lat,Lon (AQUA) SZA (AQUA ) Distance(km) Time Diff (sec)
1 12/21/2019 21:00:42 69.13, 90.71 126.74 12/21/2019 21:01:14 69.12, 90.66 126.72 2.17 32
2 12/21/2019 21:50:34 -71.93, -97.45 56.00 12/21/2019 21:49:50 -71.92, -97.50 55.93 1.86 44
3 12/24/2019 13:17:10 68.98,-153.60 126.96 12/24/2019 13:17:46 68.97,-153.65 126.93 2.26 36
4 12/24/2019 14:07:03 -71.74, 18.08 55.73 12/24/2019 14:06:23 -71.73, 18.05 55.68 1.37 40
5 12/27/2019 05:33:57 67.80, -39.22 128.10 12/27/2019 05:34:36 67.81, -39.18 128.03 2.17 39
6 12/27/2019 06:23:31 -71.59, 133.72 55.58 12/27/2019 06:22:55 -71.59, 133.68 55.52 1.23 36
7 12/29/2019 21:50:22 67.81, 76.68 128.07 12/29/2019 21:51:05 67.82, 76.71 128.00 1.42 43
8 12/29/2019 22:39:58 -71.49,-110.56 55.52 12/29/2019 22:39:26 -71.49,-110.60 55.47 1.44 32
9 01/01/2020 14:06:46 67.81,-167.42 127.98 01/01/2020 14:07:33 67.81,-167.41 127.92 0.35 47




NCC Satellite Simultaneous Nadir Overpasses (SNOs) Prediction Service
